User: anonymous
Location: Unspecified
(0.0000°N, 0.0000°E)
Time: 13:33:59
(UTC+02:00)
Language:

Ariane H10 - Orbit

View from above orbital plane
View from above orbital plane
View from above satellite
View from above satellite

Ground track
Ground track

The orbit data is extracted from the following two-line orbital elements,

1 19122U 88040B   14244.49269743  .00000527  00000-0  30310-2 0   257
2 19122 007.0138 227.8981 7151490 044.3359 021.7097 02.32253516173150
Epoch (UTC): 01 September 2014 11:49:29
Eccentricity: 0.7151490
inclination: 7.0138°
perigee height: 483 km
apogee height: 34932 km
right ascension of ascending node: 227.8981°
argument of perigee: 44.3359°
revolutions per day: 2.32253516
mean anomaly at epoch: 21.7097°
orbit number at epoch: 17315

The dashed part of the orbit path shows where the satellite is in the earth's shadow,  

DLR